Year,Month,Day,Hour,Minute,Value (Times are PST for windgust in km/hr)
2020,03,30,00,00,17.70
2020,03,30,00,01,19.30
2020,03,30,00,02,20.90
2020,03,30,00,03,22.50
2020,03,30,00,04,17.70
2020,03,30,00,05,25.70
2020,03,30,00,06,19.30
2020,03,30,00,07,16.10
2020,03,30,00,08,32.20
2020,03,30,00,09,25.70
2020,03,30,00,10,16.10
2020,03,30,00,11,16.10
2020,03,30,00,12,27.40
2020,03,30,00,13,25.70
2020,03,30,00,14,12.90
2020,03,30,00,15,9.60
2020,03,30,00,16,14.50
2020,03,30,00,17,16.10
2020,03,30,00,18,22.50
2020,03,30,00,19,12.90
2020,03,30,00,20,16.10
2020,03,30,00,21,12.90
2020,03,30,00,22,22.50
2020,03,30,00,23,19.30
2020,03,30,00,24,25.70
2020,03,30,00,25,24.20
2020,03,30,00,26,17.70
2020,03,30,00,27,14.50
2020,03,30,00,28,12.90
2020,03,30,00,29,12.90
2020,03,30,00,30,11.30
2020,03,30,00,31,12.90
2020,03,30,00,32,20.90
2020,03,30,00,33,19.30
2020,03,30,00,34,25.70
2020,03,30,00,35,22.50
2020,03,30,00,36,17.70
2020,03,30,00,37,20.90
2020,03,30,00,38,24.20
2020,03,30,00,39,30.60
2020,03,30,00,40,25.70
2020,03,30,00,41,24.20
2020,03,30,00,42,20.90
2020,03,30,00,43,19.30
2020,03,30,00,44,20.90
2020,03,30,00,45,19.30
2020,03,30,00,46,22.50
2020,03,30,00,47,19.30
2020,03,30,00,48,20.90
2020,03,30,00,49,24.20
2020,03,30,00,50,30.60
2020,03,30,00,51,32.20
2020,03,30,00,52,43.50
2020,03,30,00,53,35.40
2020,03,30,00,54,25.70
2020,03,30,00,55,25.70
2020,03,30,00,56,22.50
2020,03,30,00,57,24.20
2020,03,30,00,58,19.30
2020,03,30,00,59,22.50
2020,03,30,01,00,16.10
2020,03,30,01,01,25.70
2020,03,30,01,02,6.40
2020,03,30,01,03,19.30
2020,03,30,01,04,11.30
2020,03,30,01,05,17.70
2020,03,30,01,06,24.20
2020,03,30,01,07,14.50
2020,03,30,01,08,6.40
2020,03,30,01,09,20.90
2020,03,30,01,10,24.20
2020,03,30,01,11,16.10
2020,03,30,01,12,12.90
2020,03,30,01,13,27.40
2020,03,30,01,14,25.70
2020,03,30,01,15,30.60
2020,03,30,01,16,43.50
2020,03,30,01,17,41.80
2020,03,30,01,18,29.00
2020,03,30,01,19,14.50
2020,03,30,01,20,35.40
2020,03,30,01,21,30.60
2020,03,30,01,22,32.20
2020,03,30,01,23,24.20
2020,03,30,01,24,27.40
2020,03,30,01,25,35.40
2020,03,30,01,26,24.20
2020,03,30,01,27,22.50
2020,03,30,01,28,19.30
2020,03,30,01,29,17.70
2020,03,30,01,30,24.20
2020,03,30,01,31,25.70
2020,03,30,01,32,24.20
2020,03,30,01,33,27.40
2020,03,30,01,34,33.80
2020,03,30,01,35,20.90
2020,03,30,01,36,38.60
2020,03,30,01,37,30.60
2020,03,30,01,38,24.20
2020,03,30,01,39,48.30
2020,03,30,01,40,46.70
2020,03,30,01,41,45.10
2020,03,30,01,42,29.00
2020,03,30,01,43,22.50
2020,03,30,01,44,62.70
2020,03,30,01,45,41.80
2020,03,30,01,46,24.20
2020,03,30,01,47,41.80
2020,03,30,01,48,46.70
2020,03,30,01,49,33.80
2020,03,30,01,50,38.60
2020,03,30,01,51,57.90
2020,03,30,01,52,37.00
2020,03,30,01,53,20.90
2020,03,30,01,54,30.60
2020,03,30,01,55,35.40
2020,03,30,01,56,35.40
2020,03,30,01,57,29.00
2020,03,30,01,58,41.80
2020,03,30,01,59,29.00
2020,03,30,02,00,35.40
2020,03,30,02,01,30.60
2020,03,30,02,02,38.60
2020,03,30,02,03,35.40
2020,03,30,02,04,33.80
2020,03,30,02,05,27.40
2020,03,30,02,06,24.20
2020,03,30,02,07,24.20
2020,03,30,02,08,22.50
2020,03,30,02,09,19.30
2020,03,30,02,10,16.10
2020,03,30,02,11,27.40
2020,03,30,02,12,16.10
2020,03,30,02,13,30.60
2020,03,30,02,14,30.60
2020,03,30,02,15,25.70
2020,03,30,02,16,19.30
2020,03,30,02,17,30.60
2020,03,30,02,18,40.20
2020,03,30,02,19,29.00
2020,03,30,02,20,20.90
2020,03,30,02,21,30.60
2020,03,30,02,22,32.20
2020,03,30,02,23,25.70
2020,03,30,02,24,16.10
2020,03,30,02,25,24.20
2020,03,30,02,26,33.80
2020,03,30,02,27,35.40
2020,03,30,02,28,38.60
2020,03,30,02,29,27.40
2020,03,30,02,30,22.50
2020,03,30,02,31,16.10
2020,03,30,02,32,22.50
2020,03,30,02,33,38.60
2020,03,30,02,34,25.70
2020,03,30,02,35,37.00
2020,03,30,02,36,27.40
2020,03,30,02,37,40.20
2020,03,30,02,38,30.60
2020,03,30,02,39,22.50
2020,03,30,02,40,27.40
2020,03,30,02,41,25.70
2020,03,30,02,42,22.50
2020,03,30,02,43,30.60
2020,03,30,02,44,17.70
2020,03,30,02,45,24.20
2020,03,30,02,46,35.40
2020,03,30,02,47,19.30
2020,03,30,02,48,20.90
2020,03,30,02,49,17.70
2020,03,30,02,50,32.20
2020,03,30,02,51,19.30
2020,03,30,02,52,17.70
2020,03,30,02,53,22.50
2020,03,30,02,54,20.90
2020,03,30,02,55,20.90
2020,03,30,02,56,22.50
2020,03,30,02,57,48.30
2020,03,30,02,58,38.60
2020,03,30,02,59,40.20
2020,03,30,03,00,25.70
2020,03,30,03,01,37.00
2020,03,30,03,02,20.90
2020,03,30,03,03,29.00
2020,03,30,03,04,30.60
2020,03,30,03,05,30.60
2020,03,30,03,06,57.90
2020,03,30,03,07,38.60
2020,03,30,03,08,43.50
2020,03,30,03,09,33.80
2020,03,30,03,10,38.60
2020,03,30,03,11,45.10
2020,03,30,03,12,22.50
2020,03,30,03,13,33.80
2020,03,30,03,14,29.00
2020,03,30,03,15,24.20
2020,03,30,03,16,22.50
2020,03,30,03,17,19.30
2020,03,30,03,18,22.50
2020,03,30,03,19,27.40
2020,03,30,03,20,51.50
2020,03,30,03,21,25.70
2020,03,30,03,22,20.90
2020,03,30,03,23,30.60
2020,03,30,03,24,20.90
2020,03,30,03,25,19.30
2020,03,30,03,26,25.70
2020,03,30,03,27,35.40
2020,03,30,03,28,12.90
2020,03,30,03,29,11.30
2020,03,30,03,30,20.90
2020,03,30,03,31,20.90
2020,03,30,03,32,12.90
2020,03,30,03,33,6.40
2020,03,30,03,34,6.40
2020,03,30,03,35,22.50
2020,03,30,03,36,11.30
2020,03,30,03,37,14.50
2020,03,30,03,38,19.30
2020,03,30,03,39,11.30
2020,03,30,03,40,12.90
2020,03,30,03,41,8.10
2020,03,30,03,42,12.90
2020,03,30,03,43,14.50
2020,03,30,03,44,4.80
2020,03,30,03,45,11.30
2020,03,30,03,46,17.70
2020,03,30,03,47,12.90
2020,03,30,03,48,17.70
2020,03,30,03,49,9.60
2020,03,30,03,50,16.10
2020,03,30,03,51,17.70
2020,03,30,03,52,11.30
2020,03,30,03,53,14.50
2020,03,30,03,54,12.90
2020,03,30,03,55,9.60
2020,03,30,03,56,11.30
2020,03,30,03,57,11.30
2020,03,30,03,58,14.50
2020,03,30,03,59,19.30
2020,03,30,04,00,14.50
2020,03,30,04,01,22.50
2020,03,30,04,02,12.90
2020,03,30,04,03,16.10
2020,03,30,04,04,17.70
2020,03,30,04,05,19.30
2020,03,30,04,06,12.90
2020,03,30,04,07,11.30
2020,03,30,04,08,9.60
2020,03,30,04,09,17.70
2020,03,30,04,10,11.30
2020,03,30,04,11,14.50
2020,03,30,04,12,9.60
2020,03,30,04,13,16.10
2020,03,30,04,14,11.30
2020,03,30,04,15,11.30
2020,03,30,04,16,9.60
2020,03,30,04,17,16.10
2020,03,30,04,18,11.30
2020,03,30,04,19,20.90
2020,03,30,04,20,8.10
2020,03,30,04,21,9.60
2020,03,30,04,22,16.10
2020,03,30,04,23,11.30
2020,03,30,04,24,12.90
2020,03,30,04,25,8.10
2020,03,30,04,26,9.60
2020,03,30,04,27,11.30
2020,03,30,04,28,11.30
2020,03,30,04,29,17.70
2020,03,30,04,30,16.10
2020,03,30,04,31,24.20
2020,03,30,04,32,22.50
2020,03,30,04,33,20.90
2020,03,30,04,34,20.90
2020,03,30,04,35,19.30
2020,03,30,04,36,14.50
2020,03,30,04,37,27.40
2020,03,30,04,38,16.10
2020,03,30,04,39,6.40
2020,03,30,04,40,17.70
2020,03,30,04,41,14.50
2020,03,30,04,42,17.70
2020,03,30,04,43,11.30
2020,03,30,04,44,8.10
2020,03,30,04,45,3.20
2020,03,30,04,46,8.10
2020,03,30,04,47,6.40
2020,03,30,04,48,3.20
2020,03,30,04,49,4.80
2020,03,30,04,50,8.10
2020,03,30,04,51,9.60
2020,03,30,04,52,9.60
2020,03,30,04,53,9.60
2020,03,30,04,54,16.10
2020,03,30,04,55,14.50
2020,03,30,04,56,12.90
2020,03,30,04,57,9.60
2020,03,30,04,58,14.50
2020,03,30,04,59,11.30
2020,03,30,05,00,8.10
2020,03,30,05,01,11.30
2020,03,30,05,02,12.90
2020,03,30,05,03,9.60
2020,03,30,05,04,4.80
2020,03,30,05,05,6.40
2020,03,30,05,06,4.80
2020,03,30,05,07,4.80
2020,03,30,05,08,4.80
2020,03,30,05,09,8.10
2020,03,30,05,10,4.80
2020,03,30,05,11,8.10
2020,03,30,05,12,9.60
2020,03,30,05,13,8.10
2020,03,30,05,14,1.60
2020,03,30,05,15,6.40
2020,03,30,05,16,6.40
2020,03,30,05,17,6.40
2020,03,30,05,18,4.80
2020,03,30,05,19,4.80
2020,03,30,05,20,6.40
2020,03,30,05,21,4.80
2020,03,30,05,22,3.20
2020,03,30,05,23,3.20
2020,03,30,05,24,3.20
2020,03,30,05,25,3.20
2020,03,30,05,26,3.20
2020,03,30,05,27,1.60
2020,03,30,05,28,3.20
2020,03,30,05,29,6.40
2020,03,30,05,30,4.80
2020,03,30,05,31,6.40
2020,03,30,05,32,9.60
2020,03,30,05,33,1.60
2020,03,30,05,34,4.80
2020,03,30,05,35,6.40
2020,03,30,05,36,4.80
2020,03,30,05,37,3.20
2020,03,30,05,38,1.60
2020,03,30,05,39,1.60
2020,03,30,05,40,3.20
2020,03,30,05,41,1.60
2020,03,30,05,42,3.20
2020,03,30,05,43,4.80
2020,03,30,05,44,6.40
2020,03,30,05,45,6.40
2020,03,30,05,46,1.60
2020,03,30,05,47,6.40
2020,03,30,05,48,6.40
2020,03,30,05,49,6.40
2020,03,30,05,50,3.20
2020,03,30,05,51,1.60
2020,03,30,05,52,1.60
2020,03,30,05,53,3.20
2020,03,30,05,54,3.20
2020,03,30,05,55,3.20
2020,03,30,05,56,3.20
2020,03,30,05,57,3.20
2020,03,30,05,58,4.80
2020,03,30,05,59,3.20
2020,03,30,06,01,1.60
2020,03,30,06,02,4.80
2020,03,30,06,03,4.80
2020,03,30,06,04,3.20
2020,03,30,06,05,1.60
2020,03,30,06,09,3.20
2020,03,30,06,10,3.20
2020,03,30,06,12,1.60
2020,03,30,06,13,1.60
2020,03,30,06,14,1.60
2020,03,30,06,16,1.60
2020,03,30,06,17,1.60
2020,03,30,06,18,1.60
2020,03,30,06,19,1.60
2020,03,30,06,20,1.60
2020,03,30,06,22,1.60
2020,03,30,06,23,1.60
2020,03,30,06,24,1.60
2020,03,30,06,28,3.20
2020,03,30,06,29,3.20
2020,03,30,06,31,1.60
2020,03,30,06,32,1.60
2020,03,30,06,33,1.60
2020,03,30,06,34,1.60
2020,03,30,06,35,1.60
2020,03,30,06,37,1.60
2020,03,30,06,38,1.60
2020,03,30,06,40,1.60
2020,03,30,06,44,1.60
2020,03,30,06,45,1.60
2020,03,30,06,46,1.60
2020,03,30,06,47,1.60
2020,03,30,06,48,3.20
2020,03,30,06,49,1.60
2020,03,30,06,50,1.60
2020,03,30,06,51,1.60
2020,03,30,06,53,1.60
2020,03,30,06,54,1.60
2020,03,30,06,55,1.60
2020,03,30,06,56,1.60
2020,03,30,06,57,1.60
2020,03,30,06,58,3.20
2020,03,30,06,59,1.60
2020,03,30,07,00,1.60
2020,03,30,07,01,1.60
2020,03,30,07,08,1.60
2020,03,30,07,09,1.60
2020,03,30,07,10,1.60
2020,03,30,07,11,1.60
2020,03,30,07,16,1.60
2020,03,30,07,17,1.60
2020,03,30,07,18,3.20
2020,03,30,07,19,3.20
2020,03,30,07,20,3.20
2020,03,30,07,21,3.20
2020,03,30,07,22,1.60
2020,03,30,07,24,1.60
2020,03,30,07,25,1.60
2020,03,30,07,26,1.60
2020,03,30,07,27,3.20
2020,03,30,07,29,3.20
2020,03,30,07,30,3.20
2020,03,30,07,31,1.60
2020,03,30,07,32,1.60
2020,03,30,07,33,3.20
2020,03,30,07,34,1.60
2020,03,30,07,35,3.20
2020,03,30,07,36,3.20
2020,03,30,07,37,3.20
2020,03,30,07,38,1.60
2020,03,30,07,41,1.60
2020,03,30,07,42,1.60
2020,03,30,07,43,3.20
2020,03,30,07,44,1.60
2020,03,30,07,45,3.20
2020,03,30,07,46,3.20
2020,03,30,07,47,3.20
2020,03,30,07,48,3.20
2020,03,30,07,49,4.80
2020,03,30,07,50,3.20
2020,03,30,07,51,1.60
2020,03,30,07,54,1.60
2020,03,30,07,55,1.60
2020,03,30,07,56,1.60
2020,03,30,08,00,1.60
2020,03,30,08,01,1.60
2020,03,30,08,02,1.60
2020,03,30,08,10,3.20
2020,03,30,08,11,3.20
2020,03,30,08,12,3.20
2020,03,30,08,13,3.20
2020,03,30,08,14,1.60
2020,03,30,08,16,1.60
2020,03,30,08,17,1.60
2020,03,30,08,18,3.20
2020,03,30,08,19,3.20
2020,03,30,08,20,3.20
2020,03,30,08,21,1.60
2020,03,30,08,22,3.20
2020,03,30,08,23,4.80
2020,03,30,08,24,4.80
2020,03,30,08,25,4.80
2020,03,30,08,26,3.20
2020,03,30,08,27,1.60
2020,03,30,08,28,1.60
2020,03,30,08,29,3.20
2020,03,30,08,30,3.20
2020,03,30,08,31,1.60
2020,03,30,08,32,3.20
2020,03,30,08,33,3.20
2020,03,30,08,34,1.60
2020,03,30,08,36,1.60
2020,03,30,08,37,1.60
2020,03,30,08,38,3.20
2020,03,30,08,39,1.60
2020,03,30,08,40,1.60
2020,03,30,08,41,3.20
2020,03,30,08,42,3.20
2020,03,30,08,43,1.60
2020,03,30,08,44,3.20
2020,03,30,08,45,3.20
2020,03,30,08,46,3.20
2020,03,30,08,47,4.80
2020,03,30,08,48,6.40
2020,03,30,08,49,6.40
2020,03,30,08,50,6.40
2020,03,30,08,51,4.80
2020,03,30,08,52,4.80
2020,03,30,08,53,8.10
2020,03,30,08,54,4.80
2020,03,30,08,55,3.20
2020,03,30,08,56,1.60
2020,03,30,08,57,1.60
2020,03,30,08,59,1.60
2020,03,30,09,00,1.60
2020,03,30,09,01,3.20
2020,03,30,09,02,3.20
2020,03,30,09,03,4.80
2020,03,30,09,04,3.20
2020,03,30,09,05,1.60
2020,03,30,09,06,1.60
2020,03,30,09,07,1.60
2020,03,30,09,09,1.60
2020,03,30,09,10,1.60
2020,03,30,09,11,3.20
2020,03,30,09,12,3.20
2020,03,30,09,13,4.80
2020,03,30,09,14,4.80
2020,03,30,09,15,1.60
2020,03,30,09,16,1.60
2020,03,30,09,17,1.60
2020,03,30,09,18,3.20
2020,03,30,09,19,3.20
2020,03,30,09,20,3.20
2020,03,30,09,21,3.20
2020,03,30,09,22,3.20
2020,03,30,09,23,1.60
2020,03,30,09,24,3.20
2020,03,30,09,25,6.40
2020,03,30,09,26,6.40
2020,03,30,09,27,3.20
2020,03,30,09,28,3.20
2020,03,30,09,29,3.20
2020,03,30,09,30,3.20
2020,03,30,09,31,3.20
2020,03,30,09,32,1.60
2020,03,30,09,33,6.40
2020,03,30,09,34,3.20
2020,03,30,09,35,6.40
2020,03,30,09,36,6.40
2020,03,30,09,37,4.80
2020,03,30,09,38,3.20
2020,03,30,09,39,3.20
2020,03,30,09,40,3.20
2020,03,30,09,41,3.20
2020,03,30,09,46,1.60
2020,03,30,09,47,1.60
2020,03,30,09,48,1.60
2020,03,30,09,49,1.60
2020,03,30,09,50,3.20
2020,03,30,09,51,1.60
2020,03,30,09,52,1.60
2020,03,30,09,53,3.20
2020,03,30,09,54,3.20
2020,03,30,09,55,1.60
2020,03,30,09,56,3.20
2020,03,30,09,57,3.20
2020,03,30,09,58,3.20
2020,03,30,09,59,4.80
2020,03,30,10,00,4.80
2020,03,30,10,01,1.60
2020,03,30,10,02,1.60
2020,03,30,10,03,3.20
2020,03,30,10,04,3.20
2020,03,30,10,05,3.20
2020,03,30,10,06,3.20
2020,03,30,10,07,1.60
2020,03,30,10,08,1.60
2020,03,30,10,10,3.20
2020,03,30,10,11,4.80
2020,03,30,10,12,4.80
2020,03,30,10,13,4.80
2020,03,30,10,14,4.80
2020,03,30,10,15,4.80
2020,03,30,10,16,3.20
2020,03,30,10,17,3.20
2020,03,30,10,18,3.20
2020,03,30,10,19,4.80
2020,03,30,10,20,3.20
2020,03,30,10,21,3.20
2020,03,30,10,22,1.60
2020,03,30,10,23,3.20
2020,03,30,10,24,1.60
2020,03,30,10,25,3.20
2020,03,30,10,26,3.20
2020,03,30,10,27,3.20
2020,03,30,10,28,4.80
2020,03,30,10,29,1.60
2020,03,30,10,30,1.60
2020,03,30,10,31,1.60
2020,03,30,10,32,1.60
2020,03,30,10,33,3.20
2020,03,30,10,34,3.20
2020,03,30,10,35,1.60
2020,03,30,10,37,1.60
2020,03,30,10,38,1.60
2020,03,30,10,39,3.20
2020,03,30,10,40,3.20
2020,03,30,10,41,3.20
2020,03,30,10,42,3.20
2020,03,30,10,43,3.20
2020,03,30,10,44,4.80
2020,03,30,10,45,4.80
2020,03,30,10,46,3.20
2020,03,30,10,47,1.60
2020,03,30,10,48,1.60
2020,03,30,10,49,3.20
2020,03,30,10,50,3.20
2020,03,30,10,51,4.80
2020,03,30,10,52,3.20
2020,03,30,10,53,3.20
2020,03,30,10,54,1.60
2020,03,30,10,55,3.20
2020,03,30,10,56,3.20
2020,03,30,10,57,4.80
2020,03,30,10,58,3.20
2020,03,30,10,59,8.10
2020,03,30,11,00,9.60
2020,03,30,11,01,1.60
2020,03,30,11,02,4.80
2020,03,30,11,03,4.80
2020,03,30,11,04,4.80
2020,03,30,11,05,4.80
2020,03,30,11,06,4.80
2020,03,30,11,07,6.40
2020,03,30,11,08,6.40
2020,03,30,11,09,6.40
2020,03,30,11,10,4.80
2020,03,30,11,11,4.80
2020,03,30,11,12,4.80
2020,03,30,11,13,4.80
2020,03,30,11,14,4.80
2020,03,30,11,15,4.80
2020,03,30,11,16,3.20
2020,03,30,11,17,4.80
2020,03,30,11,18,6.40
2020,03,30,11,19,4.80
2020,03,30,11,20,3.20
2020,03,30,11,21,4.80
2020,03,30,11,22,1.60
2020,03,30,11,23,1.60
2020,03,30,11,24,4.80
2020,03,30,11,25,3.20
2020,03,30,11,26,3.20
2020,03,30,11,27,3.20
2020,03,30,11,28,1.60
2020,03,30,11,29,1.60
2020,03,30,11,30,3.20
2020,03,30,11,31,1.60
2020,03,30,11,32,3.20
2020,03,30,11,33,3.20
2020,03,30,11,34,3.20
2020,03,30,11,35,3.20
2020,03,30,11,36,3.20
2020,03,30,11,37,4.80
2020,03,30,11,38,3.20
2020,03,30,11,39,4.80
2020,03,30,11,40,4.80
2020,03,30,11,41,4.80
2020,03,30,11,42,6.40
2020,03,30,11,43,6.40
2020,03,30,11,44,8.10
2020,03,30,11,45,6.40
2020,03,30,11,46,8.10
2020,03,30,11,47,8.10
2020,03,30,11,48,16.10
2020,03,30,11,49,16.10
2020,03,30,11,50,6.40
2020,03,30,11,51,6.40
2020,03,30,11,52,6.40
2020,03,30,11,53,8.10
2020,03,30,11,54,6.40
2020,03,30,11,55,8.10
2020,03,30,11,56,8.10
2020,03,30,11,57,6.40
2020,03,30,11,58,4.80
2020,03,30,11,59,4.80
2020,03,30,12,00,3.20
2020,03,30,12,01,11.30
2020,03,30,12,02,6.40
2020,03,30,12,03,6.40
2020,03,30,12,04,6.40
2020,03,30,12,05,9.60
2020,03,30,12,06,9.60
2020,03,30,12,07,12.90
2020,03,30,12,08,9.60
2020,03,30,12,09,11.30
2020,03,30,12,10,8.10
2020,03,30,12,11,6.40
2020,03,30,12,12,9.60
2020,03,30,12,13,4.80
2020,03,30,12,14,6.40
2020,03,30,12,15,9.60
2020,03,30,12,16,9.60
2020,03,30,12,17,6.40
2020,03,30,12,18,14.50
2020,03,30,12,19,11.30
2020,03,30,12,20,11.30
2020,03,30,12,21,12.90
2020,03,30,12,22,9.60
2020,03,30,12,23,6.40
2020,03,30,12,24,11.30
2020,03,30,12,25,14.50
2020,03,30,12,26,11.30
2020,03,30,12,27,9.60
2020,03,30,12,28,12.90
2020,03,30,12,29,11.30
2020,03,30,12,30,6.40
2020,03,30,12,31,4.80
2020,03,30,12,32,11.30
2020,03,30,12,33,6.40
2020,03,30,12,34,8.10
2020,03,30,12,35,6.40
2020,03,30,12,36,4.80
2020,03,30,12,37,8.10
2020,03,30,12,38,8.10
2020,03,30,12,39,9.60
2020,03,30,12,40,8.10
2020,03,30,12,41,12.90
2020,03,30,12,42,6.40
2020,03,30,12,43,8.10
2020,03,30,12,44,4.80
2020,03,30,12,45,8.10
2020,03,30,12,46,6.40
2020,03,30,12,47,4.80
2020,03,30,12,48,4.80
2020,03,30,12,49,8.10
2020,03,30,12,50,9.60
2020,03,30,12,51,6.40
2020,03,30,12,52,4.80
2020,03,30,12,53,3.20
2020,03,30,12,54,9.60
2020,03,30,12,55,12.90
2020,03,30,12,56,8.10
2020,03,30,12,57,8.10
2020,03,30,12,58,11.30
2020,03,30,12,59,8.10
2020,03,30,13,00,8.10
2020,03,30,13,01,14.50
2020,03,30,13,02,9.60
2020,03,30,13,03,6.40
2020,03,30,13,04,6.40
2020,03,30,13,05,9.60
2020,03,30,13,06,12.90
2020,03,30,13,07,11.30
2020,03,30,13,08,12.90
2020,03,30,13,09,16.10
2020,03,30,13,10,6.40
2020,03,30,13,11,9.60
2020,03,30,13,12,8.10
2020,03,30,13,13,12.90
2020,03,30,13,14,9.60
2020,03,30,13,15,4.80
2020,03,30,13,16,9.60
2020,03,30,13,17,8.10
2020,03,30,13,18,3.20
2020,03,30,13,19,1.60
2020,03,30,13,20,11.30
2020,03,30,13,21,9.60
2020,03,30,13,22,6.40
2020,03,30,13,23,4.80
2020,03,30,13,24,3.20
2020,03,30,13,25,3.20
2020,03,30,13,26,3.20
2020,03,30,13,27,6.40
2020,03,30,13,28,6.40
2020,03,30,13,29,6.40
2020,03,30,13,30,3.20
2020,03,30,13,31,1.60
2020,03,30,13,32,1.60
2020,03,30,13,33,1.60
2020,03,30,13,34,4.80
2020,03,30,13,35,1.60
2020,03,30,13,36,3.20
2020,03,30,13,37,4.80
2020,03,30,13,38,4.80
2020,03,30,13,39,3.20
2020,03,30,13,40,3.20
2020,03,30,13,42,1.60
2020,03,30,13,43,3.20
2020,03,30,13,44,3.20
2020,03,30,13,45,3.20
2020,03,30,13,46,4.80
2020,03,30,13,47,9.60
2020,03,30,13,48,8.10
2020,03,30,13,49,4.80
2020,03,30,13,50,6.40
2020,03,30,13,51,6.40
2020,03,30,13,52,9.60
2020,03,30,13,53,4.80
2020,03,30,13,54,9.60
2020,03,30,13,55,9.60
2020,03,30,13,56,3.20
2020,03,30,13,57,3.20
2020,03,30,13,58,3.20
2020,03,30,13,59,12.90
2020,03,30,14,00,6.40
2020,03,30,14,01,9.60
2020,03,30,14,02,9.60
2020,03,30,14,03,11.30
2020,03,30,14,04,4.80
2020,03,30,14,05,1.60
2020,03,30,14,06,3.20
2020,03,30,14,07,3.20
2020,03,30,14,08,6.40
2020,03,30,14,09,3.20
2020,03,30,14,10,3.20
2020,03,30,14,11,8.10
2020,03,30,14,12,6.40
2020,03,30,14,13,6.40
2020,03,30,14,14,6.40
2020,03,30,14,15,4.80
2020,03,30,14,16,8.10
2020,03,30,14,17,9.60
2020,03,30,14,18,12.90
2020,03,30,14,19,12.90
2020,03,30,14,20,12.90
2020,03,30,14,21,17.70
2020,03,30,14,22,17.70
2020,03,30,14,23,22.50
2020,03,30,14,24,19.30
2020,03,30,14,25,14.50
2020,03,30,14,26,12.90
2020,03,30,14,27,9.60
2020,03,30,14,28,6.40
2020,03,30,14,29,9.60
2020,03,30,14,30,6.40
2020,03,30,14,31,8.10
2020,03,30,14,32,3.20
2020,03,30,14,33,3.20
2020,03,30,14,34,3.20
2020,03,30,14,35,3.20
2020,03,30,14,36,3.20
2020,03,30,14,37,4.80
2020,03,30,14,38,4.80
2020,03,30,14,39,3.20
2020,03,30,14,40,1.60
2020,03,30,14,41,1.60
2020,03,30,14,42,1.60
2020,03,30,14,43,1.60
2020,03,30,14,44,1.60
2020,03,30,14,45,1.60
2020,03,30,14,46,3.20
2020,03,30,14,47,3.20
2020,03,30,14,48,1.60
2020,03,30,14,49,4.80
2020,03,30,14,50,4.80
2020,03,30,14,51,4.80
2020,03,30,14,52,4.80
2020,03,30,14,53,3.20
2020,03,30,14,54,4.80
2020,03,30,14,55,9.60
2020,03,30,14,56,9.60
2020,03,30,14,57,6.40
2020,03,30,14,58,4.80
2020,03,30,14,59,3.20
2020,03,30,15,00,8.10
2020,03,30,15,01,4.80
2020,03,30,15,02,4.80
2020,03,30,15,03,6.40
2020,03,30,15,04,4.80
2020,03,30,15,05,4.80
2020,03,30,15,06,8.10
2020,03,30,15,07,8.10
2020,03,30,15,08,8.10
2020,03,30,15,09,9.60
2020,03,30,15,10,8.10
2020,03,30,15,11,8.10
2020,03,30,15,12,8.10
2020,03,30,15,13,4.80
2020,03,30,15,14,4.80
2020,03,30,15,15,6.40
2020,03,30,15,16,8.10
2020,03,30,15,17,8.10
2020,03,30,15,18,6.40
2020,03,30,15,19,6.40
2020,03,30,15,20,8.10
2020,03,30,15,21,6.40
2020,03,30,15,22,4.80
2020,03,30,15,23,3.20
2020,03,30,15,24,6.40
2020,03,30,15,25,8.10
2020,03,30,15,26,12.90
2020,03,30,15,27,11.30
2020,03,30,15,28,6.40
2020,03,30,15,29,8.10
2020,03,30,15,30,4.80
2020,03,30,15,31,17.70
2020,03,30,15,32,17.70
2020,03,30,15,33,8.10
2020,03,30,15,34,8.10
2020,03,30,15,35,6.40
2020,03,30,15,36,11.30
2020,03,30,15,37,14.50
2020,03,30,15,38,12.90
2020,03,30,15,39,14.50
2020,03,30,15,40,19.30
2020,03,30,15,41,11.30
2020,03,30,15,42,17.70
2020,03,30,15,43,19.30
2020,03,30,15,44,22.50
2020,03,30,15,45,19.30
2020,03,30,15,46,17.70
2020,03,30,15,47,16.10
2020,03,30,15,48,20.90
2020,03,30,15,49,12.90
2020,03,30,15,50,19.30
2020,03,30,15,51,9.60
2020,03,30,15,52,14.50
2020,03,30,15,53,16.10
2020,03,30,15,54,14.50
2020,03,30,15,55,14.50
2020,03,30,15,56,4.80
2020,03,30,15,57,12.90
2020,03,30,15,58,11.30
2020,03,30,15,59,11.30
2020,03,30,16,00,16.10
2020,03,30,16,01,12.90
2020,03,30,16,02,11.30
2020,03,30,16,03,9.60
2020,03,30,16,04,24.20
2020,03,30,16,05,25.70
2020,03,30,16,06,22.50
2020,03,30,16,07,19.30
2020,03,30,16,08,11.30
2020,03,30,16,09,16.10
2020,03,30,16,10,14.50
2020,03,30,16,11,12.90
2020,03,30,16,12,12.90
2020,03,30,16,13,16.10
2020,03,30,16,14,17.70
2020,03,30,16,15,17.70
2020,03,30,16,16,16.10
2020,03,30,16,17,12.90
2020,03,30,16,18,6.40
2020,03,30,16,19,9.60
2020,03,30,16,20,14.50
2020,03,30,16,21,17.70
2020,03,30,16,22,14.50
2020,03,30,16,23,11.30
2020,03,30,16,24,11.30
2020,03,30,16,25,8.10
2020,03,30,16,26,8.10
2020,03,30,16,27,16.10
2020,03,30,16,28,16.10
2020,03,30,16,29,9.60
2020,03,30,16,30,9.60
2020,03,30,16,31,12.90
2020,03,30,16,32,16.10
2020,03,30,16,33,14.50
2020,03,30,16,34,16.10
2020,03,30,16,35,14.50
2020,03,30,16,36,12.90
2020,03,30,16,37,12.90
2020,03,30,16,38,12.90
2020,03,30,16,39,9.60
2020,03,30,16,40,14.50
2020,03,30,16,41,14.50
2020,03,30,16,42,17.70
2020,03,30,16,43,22.50
2020,03,30,16,44,14.50
2020,03,30,16,45,9.60
2020,03,30,16,46,9.60
2020,03,30,16,47,12.90
2020,03,30,16,48,14.50
2020,03,30,16,49,9.60
2020,03,30,16,50,8.10
2020,03,30,16,51,9.60
2020,03,30,16,52,6.40
2020,03,30,16,53,12.90
2020,03,30,16,54,8.10
2020,03,30,16,55,8.10
2020,03,30,16,56,9.60
2020,03,30,16,57,8.10
2020,03,30,16,58,6.40
2020,03,30,16,59,4.80
2020,03,30,17,00,6.40
2020,03,30,17,01,8.10
2020,03,30,17,02,4.80
2020,03,30,17,03,9.60
2020,03,30,17,04,12.90
2020,03,30,17,05,14.50
2020,03,30,17,06,6.40
2020,03,30,17,07,6.40
2020,03,30,17,08,6.40
2020,03,30,17,09,6.40
2020,03,30,17,10,11.30
2020,03,30,17,11,9.60
2020,03,30,17,12,8.10
2020,03,30,17,13,8.10
2020,03,30,17,14,6.40
2020,03,30,17,15,11.30
2020,03,30,17,16,9.60
2020,03,30,17,17,8.10
2020,03,30,17,18,6.40
2020,03,30,17,19,6.40
2020,03,30,17,20,4.80
2020,03,30,17,21,3.20
2020,03,30,17,22,3.20
2020,03,30,17,23,1.60
2020,03,30,17,24,3.20
2020,03,30,17,25,1.60
2020,03,30,17,26,3.20
2020,03,30,17,27,1.60
2020,03,30,17,28,3.20
2020,03,30,17,29,3.20
2020,03,30,17,30,3.20
2020,03,30,17,31,3.20
2020,03,30,17,32,1.60
2020,03,30,17,33,3.20
2020,03,30,17,34,1.60
2020,03,30,17,35,1.60
2020,03,30,17,36,1.60
2020,03,30,17,38,1.60
2020,03,30,17,39,1.60
2020,03,30,17,40,1.60
2020,03,30,17,42,1.60
2020,03,30,17,43,1.60
2020,03,30,17,44,3.20
2020,03,30,17,47,1.60
2020,03,30,17,48,1.60
2020,03,30,17,49,1.60
2020,03,30,17,50,1.60
2020,03,30,17,51,3.20
2020,03,30,17,52,1.60
2020,03,30,17,53,3.20
2020,03,30,17,54,3.20
2020,03,30,17,55,3.20
2020,03,30,17,56,1.60
2020,03,30,17,57,1.60
2020,03,30,17,58,1.60
2020,03,30,17,59,4.80
2020,03,30,18,00,3.20
2020,03,30,18,01,3.20
2020,03,30,18,02,4.80
2020,03,30,18,03,3.20
2020,03,30,18,04,4.80
2020,03,30,18,05,4.80
2020,03,30,18,06,3.20
2020,03,30,18,07,3.20
2020,03,30,18,08,3.20
2020,03,30,18,09,1.60
2020,03,30,18,10,3.20
2020,03,30,18,11,3.20
2020,03,30,18,12,3.20
2020,03,30,18,13,3.20
2020,03,30,18,14,4.80
2020,03,30,18,15,3.20
2020,03,30,18,16,1.60
2020,03,30,18,17,1.60
2020,03,30,18,18,1.60
2020,03,30,18,20,1.60
2020,03,30,18,29,1.60
2020,03,30,18,30,1.60
2020,03,30,18,31,1.60
2020,03,30,18,32,1.60
2020,03,30,18,33,1.60
2020,03,30,18,34,3.20
2020,03,30,18,35,3.20
2020,03,30,18,36,4.80
2020,03,30,18,37,6.40
2020,03,30,18,38,9.60
2020,03,30,18,39,8.10
2020,03,30,18,40,6.40
2020,03,30,18,41,6.40
2020,03,30,18,42,8.10
2020,03,30,18,43,6.40
2020,03,30,18,44,8.10
2020,03,30,18,45,6.40
2020,03,30,18,46,11.30
2020,03,30,18,47,11.30
2020,03,30,18,48,9.60
2020,03,30,18,49,6.40
2020,03,30,18,50,6.40
2020,03,30,18,51,4.80
2020,03,30,18,52,6.40
2020,03,30,18,53,6.40
2020,03,30,18,54,11.30
2020,03,30,18,55,8.10
2020,03,30,18,56,6.40